Location: Le Petit-Vavre
(46.5081°N, 1.5239°E)
Time: 21:43:11
(UTC+00:00)

SAR-Lupe-1 - Pass Details

Date: 03 March 2021
Orbit: 482 x 483 km, 98.2° (Epoch: 30 March)

Event Time Altitude Azimuth Distance (km) Brightness Sun altitude
Rises 18:24:53 0° 20° (NNE) 2,559 7.5 -8.0°
Reaches altitude 10° 18:27:03 10° 28° (NNE) 1,673 6.5 -8.4°
Maximum altitude 18:30:27 40° 99° (E) 725 4.5 -9.0°
Drops below altitude 10° 18:33:50 10° 171° (S) 1,659 6.7 -9.6°
Sets 18:35:58 0° 179° (S) 2,534 7.7 -9.9°
